Regional Weather Roundup
Issued by NWS

Home | Current Version | Previous Version | Graphics & Text | Print | Product List | Glossary On
Versions: 1 2 3 4 5 6 7 8 9 10 11 12 13 14 15 16 17 18 19 20 21 22 23 24 25 26 27 28 29 30 31 32 33 34 35 36 37 38 39 40 41 42 43 44 45 46 47 48 49 50
000
ASUS45 KSLC 082110
RWRUT

UTAH REGIONAL WEATHER ROUNDUP
NATIONAL WEATHER SERVICE SALT LAKE CITY UT
200 PM MST MON FEB 08 2016

UTZ001>011-023>025-082200-

NORTHERN UTAH

CITY           SKY/WX    TMP DP  RH WIND       PRES   REMARKS
BRIGHAM CITY   SUNNY     32  24  72 CALM      30.68F
DUGWAY         MOSUNNY   41  31  68 NW3       30.66F
HILL AFB       SUNNY     37  24  60 NW5       30.64F WCI  33
LOGAN          SUNNY     22  17  81 NW3       30.68F HAZE
OGDEN          SUNNY     35  26  69 NW6       30.65F WCI  30
PROVO AIRPORT  NOT AVBL
SALT LAKE CITY PTSUNNY   39  28  65 N7        30.65  WCI  34
VERNAL         CLOUDY    26  15  63 CALM      30.57F
WENDOVER       SUNNY     39  28  65 SE5       30.66F
HEBER CITY     SUNNY     32  19  59 CALM      30.61F
WEST JORDAN    SUNNY     37  25  60 CALM      30.65F

$$

UTZ012>022-026-027-082200-

SOUTHERN/CENTRAL UTAH

CITY           SKY/WX    TMP DP  RH WIND       PRES   REMARKS
BLANDING       SUNNY     46  27  48 SW6       30.53F
BRYCE CANYON   SUNNY     36  22  56 NE13      30.55F WCI  27
CEDAR CITY     SUNNY     37  23  56 SW5       30.57F WCI  33
DELTA          SUNNY     23  21  92 CALM      30.66F
HANKSVILLE     SUNNY     36  27  69 CALM      30.58F
MILFORD        SUNNY     30  22  72 N9        30.61F WCI  22
MOAB/CYNLANDS  SUNNY     30  23  75 NW9       30.55F WCI  22
PRICE          SUNNY     38  21  50 SE5       30.52F WCI  34
ST GEORGE      CLEAR     57  23  26 CALM      30.45F
KANAB          SUNNY     61  27  27 E15       30.47F

$$

REGIONAL REPORTS     COLORADO/ARIZONA

CITY           SKY/WX    TMP DP  RH WIND       PRES   REMARKS
CRAIG, CO      CLOUDY    23  15  71 S5        30.56F WCI  17
GRAND JUNCTION CLOUDY    36  23  59 NE3       30.54F
RIFLE          CLOUDY    37  19  48 CALM      30.52F
MONTROSE       CLOUDY    37  21  52 CALM      30.54F
CORTEZ         SUNNY     52  23  32 NW8       30.41F
PAGE, AZ       SUNNY     47  24  40 VRB5      30.50F
GRAND CANYON   SUNNY     53  18  25 E12G21    30.48F
KINGMAN        SUNNY     65  20  17 N14       30.34F
FLAGSTAFF      SUNNY     49  16  26 NE17G25   30.46F

$$

REGIONAL REPORTS    NEVADA/IDAHO/WYOMING

CITY           SKY/WX    TMP DP  RH WIND       PRES   REMARKS
LAS VEGAS, NV  SUNNY     67  23  19 NE7       30.33F
ELY            SUNNY     34  22  61 CALM      30.61F
ELKO           SUNNY     30  19  63 SE3       30.65F
POCATELLO, ID  CLOUDY    30  26  85 NE5       30.69F WCI  25
BURLEY         CLOUDY    33  29  85 NE9       30.65F WCI  25
EVANSTON, WY   CLOUDY    28  16  60 CALM      30.59F
ROCK SPRINGS   CLOUDY    36  25  64 W26       30.48F WCI  24
KEMMERER       CLOUDY    37  27  65 NW21G28   30.54F WCI  27

$$



USA.gov is the U.S. government's official web portal to all federal, state and local government web resources and services.